Back to catalog

COSMOS 417

AliveNavigationLEO
NORAD 5216·PAYLOAD·🇷🇺 Russia

Launched May 7, 1971 from Plesetsk Cosmodrome

Loading…

Next Passes (next 24 hours)

TLE

FreshSource: Space-Track

Epoch: Sep 14, 2026, 05:24 UTC

1 05216U 71041G   26257.22534390 -.00000004  00000-0  63810-4 0  9994
2 05216  74.0190 342.4318 0095061  60.6008 328.4879 12.61456372549009

Track COSMOS 417 in real time with AllMySat

Download on the App Store